User: anonymous   Login
Location: Geroldsau
(48.7259°N, 8.2466°E)
Time: 09:25:42
(UTC+00:00)
Language:

Meteor 2-2 Rocket - Orbit

View from above orbital plane
View from above orbital plane
View from above satellite
View from above satellite

Ground track
Ground track

The orbit data is extracted from the following two-line orbital elements,

1 09662U 77002B   21263.85819281  .00000018  00000-0  35170-5 0  9995
2 09662  81.2779  26.3562 0052874  49.6829 310.8938 14.00956949284325
Epoch (UTC): 20 September 2021 20:35:47
Eccentricity: 0.0052874
inclination: 81.2779°
perigee height: 852 km
apogee height: 929 km
right ascension of ascending node: 26.3562°
argument of perigee: 49.6829°
revolutions per day: 14.00956949
mean anomaly at epoch: 310.8938°
orbit number at epoch: 28432

The dashed part of the orbit path shows where the satellite is in the earth's shadow,  

DLR